Flag for Norway Weather past 2 weeks in Elverum, Norway

Now
22 °F

Cold.


Feels Like: 22 °F
Forecast: 14 / 35 °F
Wind: 1 mph from Northeast

Location: Haugedalshogda

Current Time: Mar 4, 2015 at 7:53:43 PM

Latest Report: Mar 4, 2015 at 7:00 PM


Visibility: N/A

Pressure: 30.04 "Hg

Humidity: 82%

Dew point: 17 °F

Location of ElverumLocation

Historic Weather in Elverum — Graph

°F

Elverum temperature yesterday

Maximum temperature yesterday: 40 °F (at 2:00 PM)
Minimum temperature yesterday: 22 °F (at 11:00 PM)
Average temperature yesterday: 30 °F

Past Weeks' High & Low Weather Summary

 TemperatureHumidityPressure
High45 °F (Feb 19, 12:00 PM)96% (Feb 21, 8:00 AM)30.09 "Hg (Feb 21, 8:00 AM)
Low6 °F (Feb 22, 11:00 PM)38% (Mar 4, 3:00 PM)29.00 "Hg (Feb 23, 3:00 PM)
Average31 °F86%29.50 "Hg
* Reported Feb 17 6:00 PM — Mar 4 6:00 PM, Elverum, Weather by CustomWeather, © 2015

Note: Actual official high and low records may vary slightly from our data, if they occured in-between our weather recording intervals... More about our weather records

Advertising

Elverum weather history for previous 24 hours

 ConditionsComfort  
Time TempWeatherWind HumidityBarometerVisibility
6:00 PM
Wed, Mar 4
28 °FChilly.2 mph69%30.00 "HgN/A
5:00 PM35 °FChilly.3 mph52%29.96 "HgN/A
4:00 PM37 °FChilly.3 mph45%29.93 "HgN/A
3:00 PM38 °FChilly.3 mph38%29.89 "HgN/A
2:00 PM37 °FChilly.5 mph43%29.88 "HgN/A
1:00 PM36 °FChilly.3 mph49%29.86 "HgN/A
12:00 PM33 °FChilly.1 mph57%29.85 "HgN/A
11:00 AM27 °FChilly.3 mph71%29.83 "HgN/A
10:00 AM24 °FCold.2 mph78%29.82 "HgN/A
9:00 AM20 °FCold.2 mph87%29.81 "HgN/A
8:00 AM18 °FCold.3 mph91%29.78 "HgN/A
7:00 AM18 °FCold.2 mph93%29.75 "HgN/A
6:00 AM21 °FCold.2 mph94%29.72 "HgN/A
5:00 AM22 °FCold.2 mph95%29.70 "HgN/A
3:00 AM21 °FCold.1 mph94%29.67 "HgN/A
2:00 AM22 °FCold.1 mph95%29.65 "HgN/A
1:00 AM18 °FCold.1 mph94%29.65 "HgN/A
12:00 AM18 °FCold.1 mph94%29.64 "HgN/A
11:00 PM
Tue, Mar 3
22 °FCold.No wind95%29.62 "HgN/A
10:00 PM23 °FCold.1 mph94%29.61 "HgN/A
9:00 PM26 °FChilly.1 mph94%29.59 "HgN/A
8:00 PM28 °FChilly.1 mph91%29.58 "HgN/A
7:00 PM29 °FChilly.2 mph86%29.57 "HgN/A
Weather by CustomWeather, © 2015

See weather overviewHow to use our weather pages